FW3031 Weather Reports


time (UTC)temp
F
wind
direction
speed
knots
gust
knots
rain 1hr
in
rain 24hr
in
rain mn
in
humidity
%
barometer
mb
20260503025517 87 190 0.0 7.0 0.00 0.00 0.00 36 1008.7
20260503025019 88 190 0.0 7.0 0.00 0.00 0.00 35 1008.7
20260503024600 88 0 0.0 1.7 0.00 0.00 0.00 35 1008.1
20260503024517 88 190 0.0 1.7 0.00 0.00 0.00 35 1008.7
20260503024018 88 190 0.0 3.5 0.00 0.00 0.00 35 1008.5
20260503023516 89 190 0.0 5.2 0.00 0.00 0.00 34 1008.4
20260503023059 89 190 0.9 5.2 0.00 0.00 0.00 34 1007.8
20260503023035 89 190 0.9 5.2 0.00 0.00 0.00 34 1008.3
20260503022516 89 190 0.0 5.2 0.00 0.00 0.00 34 1008.2
20260503022018 89 190 0.0 3.5 0.00 0.00 0.00 34 1008.0
20260503021558 89 0 0.0 3.5 0.00 0.00 0.00 33 1007.5
20260503021517 89 190 0.0 3.5 0.00 0.00 0.00 33 1007.9
20260503021016 90 190 0.0 3.5 0.00 0.00 0.00 33 1007.8
20260503020516 90 190 0.0 2.6 0.00 0.00 0.00 33 1007.7
20260503020058 90 0 0.0 2.6 0.00 0.00 0.00 32 1007.2
20260503020016 90 190 0.0 2.6 0.00 0.00 0.00 33 1007.5
20260503015516 90 190 0.0 0.9 0.00 0.00 0.00 32 1007.3
20260503015015 91 190 0.0 0.9 0.00 0.00 0.00 32 1007.3
20260503014606 91 0 0.0 1.7 0.00 0.00 0.00 31 1006.9
20260503014515 91 190 0.0 1.7 0.00 0.00 0.00 32 1007.1
20260503014015 91 190 0.0 1.7 0.00 0.00 0.00 32 1006.9
20260503013514 91 190 0.0 0.0 0.00 0.00 0.00 31 1006.7
20260503013058 91 0 0.0 2.6 0.00 0.00 0.00 31 1006.2
20260503013014 91 190 0.0 2.6 0.00 0.00 0.00 31 1006.5
20260503012515 91 190 0.0 3.5 0.00 0.00 0.00 31 1006.4
20260503012013 91 190 0.0 3.5 0.00 0.00 0.00 31 1006.3
20260503011557 92 0 0.0 2.6 0.00 0.00 0.00 30 1005.9
20260503011513 92 190 0.0 0.0 0.00 0.00 0.00 30 1006.2
20260503011013 92 190 0.0 4.3 0.00 0.00 0.00 30 1006.0
20260503010514 92 190 0.9 4.3 0.00 0.00 0.00 30 1005.9
20260503010058 93 0 0.9 3.5 0.00 0.00 0.00 29 1005.4
20260503010019 93 190 0.0 3.5 0.00 0.00 0.00 29 1005.7
20260503005513 93 190 0.0 5.2 0.00 0.00 0.00 29 1005.7
20260503005017 94 190 0.0 9.6 0.00 0.00 0.00 28 1005.6
20260503004559 94 0 4.3 9.6 0.00 0.00 0.00 27 1005.2
20260503004513 94 190 4.3 9.6 0.00 0.00 0.00 27 1005.6
20260503004012 95 190 0.9 7.8 0.00 0.00 0.00 27 1005.4
20260503003511 95 190 2.6 9.6 0.00 0.00 0.00 27 1005.3
20260503003059 95 190 4.3 11.3 0.00 0.00 0.00 26 1004.9
20260503003012 95 190 3.5 9.6 0.00 0.00 0.00 26 1005.1
20260503002516 96 190 2.6 11.3 0.00 0.00 0.00 26 1004.9
20260503002011 96 190 4.3 12.2 0.00 0.00 0.00 26 1004.9
20260503001559 97 190 5.2 12.2 0.00 0.00 0.00 25 1004.6
20260503001511 97 190 5.2 12.2 0.00 0.00 0.00 25 1004.7
20260503001011 97 190 4.3 12.2 0.00 0.00 0.00 25 1004.7
20260503000510 98 190 3.5 9.6 0.00 0.00 0.00 24 1004.5
20260503000016 99 190 4.3 8.7 0.00 0.00 0.00 24 1004.5
20260502235510 99 190 0.9 6.1 0.00 0.00 0.00 25 1004.4
20260502235010 99 190 1.7 6.1 0.00 0.00 0.00 25 1004.3
20260502234558 99 190 0.9 4.3 0.00 0.00 0.00 24 1004.1
20260502234511 99 190 1.7 4.3 0.00 0.00 0.00 25 1004.3
20260502234010 99 190 0.0 7.8 0.00 0.00 0.00 25 1004.3
20260502233509 99 190 0.9 7.8 0.00 0.00 0.00 25 1004.3
20260502233059 99 190 1.7 7.0 0.00 0.00 0.00 25 1004.0
20260502233010 99 190 0.9 7.0 0.00 0.00 0.00 25 1004.3
20260502232509 99 190 1.7 6.1 0.00 0.00 0.00 25 1004.3
20260502232009 99 190 2.6 8.7 0.00 0.00 0.00 25 1004.2
20260502231604 99 190 3.5 7.8 0.00 0.00 0.00 24 1004.0
20260502231513 99 190 3.5 7.8 0.00 0.00 0.00 25 1004.2
20260502231009 100 190 1.7 6.1 0.00 0.00 0.00 25 1004.3
20260502230509 100 190 1.7 5.2 0.00 0.00 0.00 25 1004.2
20260502230104 100 0 2.6 8.7 0.00 0.00 0.00 24 1004.0
20260502230010 100 190 1.7 6.1 0.00 0.00 0.00 25 1004.2
20260502225510 100 190 0.0 8.7 0.00 0.00 0.00 25 1004.3
20260502225008 100 190 3.5 8.7 0.00 0.00 0.00 24 1004.3
20260502224601 100 0 0.9 9.6 0.00 0.00 0.00 24 1004.0
20260502224508 100 190 0.0 9.6 0.00 0.00 0.00 25 1004.2
20260502224008 100 190 4.3 9.6 0.00 0.00 0.00 25 1004.2
20260502223508 100 190 0.0 4.3 0.00 0.00 0.00 25 1004.3
20260502223100 100 0 0.0 8.7 0.00 0.00 0.00 24 1004.2
20260502223007 100 190 0.0 8.7 0.00 0.00 0.00 25 1004.4
20260502222505 100 190 2.6 8.7 0.00 0.00 0.00 25 1004.5
20260502222004 100 190 0.9 13.9 0.00 0.00 0.00 25 1004.5
20260502221600 100 190 3.5 13.9 0.00 0.00 0.00 24 1004.4
20260502221506 100 190 1.7 13.9 0.00 0.00 0.00 25 1004.6
20260502221004 100 190 0.0 5.2 0.00 0.00 0.00 25 1004.6
20260502220503 99 190 0.9 7.0 0.00 0.00 0.00 25 1004.7
20260502220057 99 0 0.0 7.8 0.00 0.00 0.00 25 1004.5
20260502220003 99 190 0.0 7.8 0.00 0.00 0.00 25 1004.7
20260502215505 99 190 0.9 5.2 0.00 0.00 0.00 25 1004.7
20260502215002 99 190 0.0 7.8 0.00 0.00 0.00 25 1004.8
20260502214601 99 0 1.7 7.8 0.00 0.00 0.00 25 1004.6
20260502214501 99 190 0.9 7.8 0.00 0.00 0.00 25 1004.8
20260502214001 100 190 1.7 6.1 0.00 0.00 0.00 25 1004.9
20260502213600 101 190 0.9 4.3 0.00 0.00 0.00 25 1004.9
20260502213059 101 190 0.0 3.5 0.00 0.00 0.00 25 1005.0
20260502213057 101 190 0.0 3.5 0.00 0.00 0.00 25 1004.8
20260502212659 100 190 0.0 3.5 0.00 0.00 0.00 25 1005.0
20260502212057 99 190 0.0 3.5 0.00 0.00 0.00 26 1005.1
20260502211603 99 0 0.0 2.6 0.00 0.00 0.00 25 1005.0
20260502211557 99 190 0.0 2.6 0.00 0.00 0.00 26 1005.2
20260502211055 99 190 0.0 4.3 0.00 0.00 0.00 26 1005.3
20260502210557 98 190 0.9 7.0 0.00 0.00 0.00 26 1005.4
20260502210108 99 190 4.3 7.0 0.00 0.00 0.00 26 1005.2
20260502210054 99 190 4.3 7.0 0.00 0.00 0.00 26 1005.5
20260502205553 98 190 0.0 6.1 0.00 0.00 0.00 27 1005.5
20260502205053 98 190 1.7 5.2 0.00 0.00 0.00 27 1005.6
20260502204559 98 190 0.0 4.3 0.00 0.00 0.00 26 1005.4
20260502204553 98 190 0.9 5.2 0.00 0.00 0.00 27 1005.7
20260502204051 97 190 0.0 4.3 0.00 0.00 0.00 28 1005.7
20260502203550 97 190 1.7 6.1 0.00 0.00 0.00 28 1005.9
20260502203059 98 190 1.7 7.0 0.00 0.00 0.00 27 1005.7
20260502203048 97 190 2.6 6.1 0.00 0.00 0.00 27 1005.9
20260502202547 97 190 0.0 7.0 0.00 0.00 0.00 28 1006.2
20260502202046 98 190 3.5 7.0 0.00 0.00 0.00 28 1006.3
20260502201601 99 190 0.9 4.3 0.00 0.00 0.00 27 1006.1
20260502201546 98 190 0.0 4.3 0.00 0.00 0.00 28 1006.3
20260502201046 99 190 0.0 0.0 0.00 0.00 0.00 28 1006.4
20260502200544 97 190 0.0 1.7 0.00 0.00 0.00 29 1006.5
20260502200045 97 190 0.0 2.6 0.00 0.00 0.00 29 1006.7
20260502195541 97 190 0.0 2.6 0.00 0.00 0.00 30 1006.7
20260502195040 97 190 0.0 4.3 0.00 0.00 0.00 30 1006.9
20260502194604 96 190 0.0 4.3 0.00 0.00 0.00 30 1006.8
20260502194538 96 190 0.0 4.3 0.00 0.00 0.00 30 1007.0
20260502194041 96 190 0.9 4.3 0.00 0.00 0.00 30 1007.1
20260502193536 95 190 0.0 4.3 0.00 0.00 0.00 31 1007.2
20260502193100 95 190 0.9 6.1 0.00 0.00 0.00 31 1007.1
20260502193035 95 190 0.9 6.1 0.00 0.00 0.00 32 1007.3
20260502192534 94 190 1.7 7.0 0.00 0.00 0.00 32 1007.4
20260502192033 95 190 1.7 7.0 0.00 0.00 0.00 31 1007.6
20260502191609 96 190 2.6 6.1 0.00 0.00 0.00 31 1007.5
20260502191532 96 190 1.7 6.1 0.00 0.00 0.00 31 1007.7
20260502191030 96 190 0.0 5.2 0.00 0.00 0.00 31 1007.8
20260502190530 95 190 0.0 2.6 0.00 0.00 0.00 32 1008.0
20260502190100 94 0 0.0 6.1 0.00 0.00 0.00 33 1007.8
20260502190028 94 190 0.0 6.1 0.00 0.00 0.00 33 1008.1
20260502185526 94 190 0.0 6.1 0.00 0.00 0.00 33 1008.3
20260502185026 94 190 1.7 6.1 0.00 0.00 0.00 33 1008.3
20260502184610 93 190 0.0 4.3 0.00 0.00 0.00 33 1008.0
20260502184531 93 190 0.0 4.3 0.00 0.00 0.00 34 1008.5
20260502184026 93 190 0.9 4.3 0.00 0.00 0.00 34 1008.7
20260502183523 93 190 0.0 3.5 0.00 0.00 0.00 34 1008.7
20260502183100 93 0 0.0 6.1 0.00 0.00 0.00 33 1008.4
20260502183023 93 190 0.0 5.2 0.00 0.00 0.00 34 1008.8
20260502182522 93 190 0.9 7.8 0.00 0.00 0.00 34 1008.9
20260502182023 93 190 1.7 7.8 0.00 0.00 0.00 34 1009.0
20260502181600 93 0 0.0 3.5 0.00 0.00 0.00 34 1008.6
20260502181522 93 190 0.0 3.5 0.00 0.00 0.00 34 1009.1
20260502181023 93 190 0.0 1.7 0.00 0.00 0.00 34 1009.2
20260502180519 92 190 0.0 7.8 0.00 0.00 0.00 35 1009.4
20260502170511 88 190 0.0 1.7 0.00 0.00 0.00 39 1010.5
20260502164002 86 190 0.9 3.5 0.00 0.00 0.00 41 1010.9
20260502163501 86 190 0.0 3.5 0.00 0.00 0.00 41 1010.9
20260502163112 86 190 0.9 3.5 0.00 0.00 0.00 41 1011.1
20260502163103 86 190 0.9 4.3 0.00 0.00 0.00 41 1010.6
20260502162600 86 190 0.9 4.3 0.00 0.00 0.00 42 1011.1
20260502162059 85 190 0.0 5.2 0.00 0.00 0.00 43 1011.1
20260502161606 85 190 1.7 6.1 0.00 0.00 0.00 42 1010.6
20260502161601 85 190 0.9 6.1 0.00 0.00 0.00 43 1011.2
20260502161059 85 190 0.9 3.5 0.00 0.00 0.00 43 1011.2
20260502160557 85 190 0.0 0.9 0.00 0.00 0.00 44 1011.3
20260502152049 82 190 0.0 1.7 0.00 0.00 0.00 47 1011.8
20260502151625 82 0 0.0 1.7 0.00 0.00 0.00 47 1011.0
20260502151552 82 190 0.0 0.9 0.00 0.00 0.00 48 1011.7
20260502151048 81 190 0.0 1.7 0.00 0.00 0.00 48 1011.8
20260502150546 81 190 0.0 1.7 0.00 0.00 0.00 48 1011.9
20260502150108 81 0 0.0 0.0 0.00 0.00 0.00 48 1011.0
20260502130533 71 190 0.0 2.6 0.00 0.00 0.00 59 1011.4
20260502123529 71 190 0.0 0.0 0.00 0.00 0.00 59 1011.0
20260502123105 71 0 0.0 1.7 0.00 0.00 0.00 58 1010.2
20260502123038 71 190 0.0 1.7 0.00 0.00 0.00 59 1011.0
20260502122527 72 190 0.0 0.0 0.00 0.00 0.00 59 1010.9
20260502122026 72 190 0.0 0.0 0.00 0.00 0.00 60 1010.9
20260502121600 72 0 0.0 0.0 0.00 0.00 0.00 59 1010.0
20260502121526 72 190 0.0 0.0 0.00 0.00 0.00 60 1010.8
20260502121024 72 190 0.0 0.0 0.00 0.00 0.00 60 1010.7
20260502120524 72 190 0.0 0.0 0.00 0.00 0.00 61 1010.6
20260502115522 72 190 0.0 0.0 0.00 0.00 0.00 63 1010.4
20260502115022 72 190 0.0 0.0 0.00 0.00 0.00 63 1010.3
20260502114608 72 0 0.0 1.7 0.00 0.00 0.00 61 1009.5
20260502114521 72 190 0.0 1.7 0.00 0.00 0.00 62 1010.3
20260502114020 72 190 0.0 1.7 0.00 0.00 0.00 63 1010.2
20260502113521 72 190 0.0 2.6 0.00 0.00 0.00 63 1010.1
20260502113105 72 190 0.9 2.6 0.00 0.00 0.00 62 1009.4
20260502113018 72 190 0.9 2.6 0.00 0.00 0.00 63 1010.1
20260502112520 73 190 0.0 2.6 0.00 0.00 0.00 63 1010.1
20260502112015 73 190 0.9 2.6 0.00 0.00 0.00 63 1009.9
20260502111602 73 190 0.9 1.7 0.00 0.00 0.00 62 1009.3
20260502111515 73 190 0.0 1.7 0.00 0.00 0.00 62 1009.9
20260502111013 73 190 0.0 0.0 0.00 0.00 0.00 62 1009.9
20260502110513 74 190 0.0 0.0 0.00 0.00 0.00 62 1009.8
20260502110057 74 0 0.0 0.0 0.00 0.00 0.00 61 1008.9
20260502110011 74 190 0.0 0.0 0.00 0.00 0.00 61 1009.7
20260502105510 74 190 0.0 0.0 0.00 0.00 0.00 61 1009.6
20260502105011 74 190 0.0 0.0 0.00 0.00 0.00 60 1009.6
20260502104600 75 0 0.0 0.0 0.00 0.00 0.00 59 1008.8
20260502104514 75 190 0.0 0.0 0.00 0.00 0.00 60 1009.6
20260502104007 75 190 0.0 0.0 0.00 0.00 0.00 59 1009.6
20260502103506 75 190 0.0 0.0 0.00 0.00 0.00 58 1009.4
20260502103110 75 0 0.0 0.0 0.00 0.00 0.00 55 1008.7
20260502103005 75 190 0.0 0.0 0.00 0.00 0.00 56 1009.4
20260502102504 75 190 0.0 0.0 0.00 0.00 0.00 56 1009.4
20260502102004 75 190 0.0 0.0 0.00 0.00 0.00 56 1009.3
20260502101613 76 0 0.0 0.0 0.00 0.00 0.00 55 1008.6
20260502101503 76 190 0.0 0.0 0.00 0.00 0.00 56 1009.3
20260502101007 76 190 0.0 0.0 0.00 0.00 0.00 57 1009.2
20260502100503 76 190 0.0 0.0 0.00 0.00 0.00 57 1009.2
20260502100133 76 0 0.0 0.0 0.00 0.00 0.00 58 1008.4
20260502091057 77 190 0.0 3.5 0.00 0.00 0.00 53 1008.9
20260502090554 77 190 0.9 3.5 0.00 0.00 0.00 53 1008.8
20260502090130 78 190 0.0 3.5 0.00 0.00 0.00 52 1008.1
20260502071043 79 190 2.6 6.1 0.00 0.00 0.00 55 1008.7
20260502070543 79 190 0.9 6.1 0.00 0.00 0.00 55 1008.7
20260502070059 79 190 2.6 7.0 0.00 0.00 0.00 54 1008.0
20260502070042 79 190 2.6 7.0 0.00 0.00 0.00 55 1008.7
20260502065541 79 190 2.6 7.0 0.00 0.00 0.00 55 1008.7
20260502065042 80 190 0.9 5.2 0.00 0.00 0.00 55 1008.8
20260502064609 80 190 0.9 6.1 0.00 0.00 0.00 54 1008.1
20260502064542 80 190 0.9 6.1 0.00 0.00 0.00 55 1008.8
20260502064042 80 190 0.9 6.1 0.00 0.00 0.00 55 1008.8
20260502063541 80 190 0.9 5.2 0.00 0.00 0.00 55 1008.8
20260502063108 80 190 1.7 6.1 0.00 0.00 0.00 54 1008.0
20260502063021 80 190 0.9 6.1 0.00 0.00 0.00 55 1008.7
20260502062517 80 190 0.9 6.1 0.00 0.00 0.00 54 1008.7
20260502062016 80 190 1.7 6.1 0.00 0.00 0.00 54 1008.7
20260502061613 80 190 0.9 7.8 0.00 0.00 0.00 53 1007.9
20260502061517 80 190 0.9 7.8 0.00 0.00 0.00 54 1008.6
20260502061016 80 190 0.9 7.8 0.00 0.00 0.00 53 1008.6
20260502060516 81 190 1.7 7.8 0.00 0.00 0.00 53 1008.6
20260502060100 81 190 3.5 7.8 0.00 0.00 0.00 52 1007.9
20260502060016 81 190 2.6 7.8 0.00 0.00 0.00 53 1008.5
20260502055516 81 190 3.5 7.8 0.00 0.00 0.00 52 1008.5
20260502055017 81 190 2.6 8.7 0.00 0.00 0.00 52 1008.4
20260502054557 81 190 3.5 8.7 0.00 0.00 0.00 51 1007.6
20260502054516 81 190 3.5 8.7 0.00 0.00 0.00 51 1008.3
20260502054015 82 190 1.7 6.1 0.00 0.00 0.00 51 1008.2
20260502053515 82 190 0.0 5.2 0.00 0.00 0.00 51 1008.2
20260502053113 82 190 1.7 5.2 0.00 0.00 0.00 50 1007.5
20260502053017 82 190 1.7 5.2 0.00 0.00 0.00 50 1008.2
20260502052515 82 190 0.9 4.3 0.00 0.00 0.00 50 1008.1
20260502052015 82 190 0.0 4.3 0.00 0.00 0.00 50 1008.1
20260502051557 82 190 0.9 4.3 0.00 0.00 0.00 49 1007.5
20260502051514 82 190 0.0 4.3 0.00 0.00 0.00 50 1008.2
20260502051014 83 190 0.0 3.5 0.00 0.00 0.00 49 1008.1
20260502050515 83 190 0.0 3.5 0.00 0.00 0.00 49 1008.0
20260502050059 83 0 0.0 3.5 0.00 0.00 0.00 49 1007.3
20260502050014 83 190 0.0 3.5 0.00 0.00 0.00 49 1008.0
20260502045515 83 190 0.0 2.6 0.00 0.00 0.00 49 1008.0
20260502045016 83 190 0.0 1.7 0.00 0.00 0.00 49 1007.9
20260502044559 83 0 0.0 1.7 0.00 0.00 0.00 48 1007.2
20260502044514 83 190 0.0 1.7 0.00 0.00 0.00 49 1007.8
20260502044013 83 190 0.0 1.7 0.00 0.00 0.00 48 1007.7
20260502043516 83 190 0.0 2.6 0.00 0.00 0.00 48 1007.7
20260502043103 83 0 0.0 3.5 0.00 0.00 0.00 47 1007.1
20260502043017 83 190 0.0 3.5 0.00 0.00 0.00 48 1007.6
20260502042513 83 190 0.0 3.5 0.00 0.00 0.00 48 1007.6
20260502042013 84 190 0.0 6.1 0.00 0.00 0.00 48 1007.6
20260502041605 84 0 0.9 6.1 0.00 0.00 0.00 47 1006.9
20260502041517 84 190 0.0 6.1 0.00 0.00 0.00 47 1007.4
20260502041018 84 190 0.9 4.3 0.00 0.00 0.00 47 1007.4
20260502040512 84 190 1.7 4.3 0.00 0.00 0.00 46 1007.2
20260502040100 85 0 0.9 3.5 0.00 0.00 0.00 45 1006.7
20260502040012 85 190 0.0 3.5 0.00 0.00 0.00 45 1007.2
20260502035513 85 190 0.0 0.0 0.00 0.00 0.00 44 1007.1
20260502035011 86 190 0.0 0.0 0.00 0.00 0.00 43 1007.0
20260502034557 86 0 0.0 1.7 0.00 0.00 0.00 42 1006.4
20260502034511 86 190 0.0 1.7 0.00 0.00 0.00 42 1007.0
20260502034010 86 190 0.0 1.7 0.00 0.00 0.00 42 1006.8
20260502033511 86 190 0.0 1.7 0.00 0.00 0.00 41 1006.7
20260502033100 87 0 0.0 0.0 0.00 0.00 0.00 40 1005.9
20260502033013 86 190 0.0 0.0 0.00 0.00 0.00 40 1006.5
20260502032514 87 190 0.0 0.0 0.00 0.00 0.00 40 1006.4
20260502032010 87 190 0.0 0.0 0.00 0.00 0.00 39 1006.4
20260502031602 87 0 0.0 0.0 0.00 0.00 0.00 38 1005.6
20260502031510 87 190 0.0 0.0 0.00 0.00 0.00 39 1006.2
20260502031010 87 190 0.0 0.0 0.00 0.00 0.00 39 1006.1
20260502030510 87 190 0.0 1.7 0.00 0.00 0.00 38 1006.0
20260502030118 88 190 0.0 1.7 0.00 0.00 0.00 38 1005.4
20260502030019 88 190 0.0 1.7 0.00 0.00 0.00 38 1005.8